| time (UTC) | temp C | wind direction | speed KPH | gust KPH | rain 1hr cm | rain 24hr cm | rain mn cm | humidity % | barometer mb |
| 20260504173004 | 17 | 279 | 3.2 | 9.7 | 0.00 | 0.00 | 0.00 | 61 | 1010.7 |
| 20260504171503 | 16 | 235 | 1.6 | 4.8 | 0.00 | 0.00 | 0.00 | 70 | 1010.8 |
| 20260504081504 | 10 | 169 | 0.0 | 0.0 | 0.00 | 0.00 | 0.00 | 86 | 1010.1 |
| 20260504050025 | 14 | 157 | 0.0 | 0.0 | 0.00 | 0.00 | 0.00 | 75 | 1010.1 |
| 20260504044516 | 14 | 157 | 0.0 | 1.6 | 0.00 | 0.00 | 0.00 | 72 | 1010.1 |
| 20260504043020 | 15 | 157 | 0.0 | 1.6 | 0.00 | 0.00 | 0.00 | 71 | 1010.1 |
| 20260504041531 | 16 | 157 | 0.0 | 1.6 | 0.00 | 0.00 | 0.00 | 70 | 1010.2 |
| 20260504040022 | 16 | 157 | 0.0 | 0.0 | 0.00 | 0.00 | 0.00 | 68 | 1010.2 |
| 20260504034520 | 17 | 200 | 0.0 | 4.8 | 0.00 | 0.00 | 0.00 | 67 | 1010.0 |
| 20260504033019 | 18 | 270 | 0.0 | 4.8 | 0.00 | 0.00 | 0.00 | 65 | 1010.0 |
| 20260504031520 | 19 | 130 | 0.0 | 3.2 | 0.00 | 0.00 | 0.00 | 64 | 1010.0 |
| 20260504030017 | 21 | 164 | 0.0 | 1.6 | 0.00 | 0.00 | 0.00 | 59 | 1009.9 |
| 20260504024523 | 23 | 183 | 0.0 | 3.2 | 0.00 | 0.00 | 0.00 | 49 | 1009.7 |
| 20260504023025 | 24 | 180 | 0.0 | 11.3 | 0.00 | 0.00 | 0.00 | 44 | 1009.7 |
| 20260504021524 | 25 | 214 | 1.6 | 9.7 | 0.00 | 0.00 | 0.00 | 40 | 1009.8 |
| 20260504020010 | 25 | 232 | 1.6 | 12.9 | 0.00 | 0.00 | 0.00 | 45 | 1010.0 |
| 20260504014509 | 24 | 202 | 1.6 | 16.1 | 0.00 | 0.00 | 0.00 | 42 | 1010.1 |
| 20260504013003 | 24 | 205 | 11.3 | 22.5 | 0.00 | 0.00 | 0.00 | 42 | 1010.1 |
| 20260504011512 | 23 | 244 | 14.5 | 24.1 | 0.00 | 0.00 | 0.00 | 46 | 1010.3 |
| 20260504010014 | 25 | 229 | 9.7 | 17.7 | 0.00 | 0.00 | 0.00 | 44 | 1010.4 |
| 20260504004521 | 23 | 256 | 8.0 | 19.3 | 0.00 | 0.00 | 0.00 | 49 | 1010.6 |
| 20260504003016 | 22 | 237 | 14.5 | 24.1 | 0.00 | 0.00 | 0.00 | 54 | 1010.7 |
| 20260504001512 | 23 | 248 | 16.1 | 24.1 | 0.00 | 0.00 | 0.00 | 50 | 1010.7 |
| 20260504000012 | 23 | 240 | 9.7 | 22.5 | 0.00 | 0.00 | 0.00 | 50 | 1010.9 |
| 20260503234506 | 22 | 223 | 17.7 | 24.1 | 0.00 | 0.00 | 0.00 | 53 | 1011.0 |
| 20260503233014 | 22 | 238 | 19.3 | 27.4 | 0.00 | 0.00 | 0.00 | 56 | 1011.0 |
| 20260503231521 | 22 | 250 | 20.9 | 27.4 | 0.00 | 0.00 | 0.00 | 52 | 1011.2 |
| 20260503230019 | 23 | 263 | 22.5 | 30.6 | 0.00 | 0.00 | 0.00 | 51 | 1011.4 |
| 20260503224521 | 21 | 244 | 20.9 | 24.1 | 0.00 | 0.00 | 0.00 | 56 | 1011.6 |
| 20260503223017 | 21 | 250 | 20.9 | 25.7 | 0.00 | 0.00 | 0.00 | 58 | 1011.8 |
| 20260503221522 | 21 | 252 | 19.3 | 24.1 | 0.00 | 0.00 | 0.00 | 58 | 1011.9 |
| 20260503220012 | 20 | 252 | 17.7 | 22.5 | 0.00 | 0.00 | 0.00 | 61 | 1012.0 |
| 20260503214511 | 21 | 242 | 16.1 | 20.9 | 0.00 | 0.00 | 0.00 | 58 | 1012.2 |
| 20260503213024 | 22 | 243 | 14.5 | 20.9 | 0.00 | 0.00 | 0.00 | 55 | 1012.4 |
| 20260503211524 | 21 | 246 | 14.5 | 22.5 | 0.00 | 0.00 | 0.00 | 56 | 1012.5 |
| 20260503210025 | 21 | 242 | 20.9 | 25.7 | 0.00 | 0.00 | 0.00 | 58 | 1012.5 |
| 20260503204524 | 21 | 242 | 19.3 | 24.1 | 0.00 | 0.00 | 0.00 | 59 | 1012.6 |
| 20260503203020 | 20 | 247 | 14.5 | 24.1 | 0.00 | 0.00 | 0.00 | 60 | 1012.9 |
| 20260503201518 | 20 | 250 | 16.1 | 24.1 | 0.00 | 0.00 | 0.00 | 62 | 1013.1 |
| 20260503200016 | 20 | 243 | 17.7 | 22.5 | 0.00 | 0.00 | 0.00 | 60 | 1013.2 |
| 20260503194525 | 20 | 244 | 14.5 | 19.3 | 0.00 | 0.00 | 0.00 | 57 | 1013.3 |
| 20260503193026 | 20 | 232 | 16.1 | 19.3 | 0.00 | 0.00 | 0.00 | 57 | 1013.3 |
| 20260503191530 | 20 | 229 | 12.9 | 17.7 | 0.00 | 0.00 | 0.00 | 57 | 1013.5 |
| 20260503190028 | 20 | 238 | 12.9 | 14.5 | 0.00 | 0.00 | 0.00 | 60 | 1013.6 |
| 20260503184524 | 20 | 229 | 8.0 | 14.5 | 0.00 | 0.00 | 0.00 | 57 | 1013.9 |
| 20260503183022 | 19 | 226 | 8.0 | 12.9 | 0.00 | 0.00 | 0.00 | 64 | 1014.1 |
| 20260503181518 | 18 | 253 | 6.4 | 12.9 | 0.00 | 0.00 | 0.00 | 67 | 1014.2 |
| 20260503180016 | 18 | 236 | 4.8 | 8.0 | 0.00 | 0.00 | 0.00 | 65 | 1014.4 |
| 20260503174526 | 17 | 243 | 1.6 | 4.8 | 0.00 | 0.00 | 0.00 | 69 | 1014.4 |